Regional Weather Roundup
Issued by NWS Cleveland, OH

Home | Current Version | Previous Version | Text Only | Print | Product List | Glossary Off
Versions: 1 2 3 4 5 6 7 8 9 10 11 12 13 14 15 16 17 18 19 20 21 22 23 24 25 26 27 28 29 30 31 32 33 34 35 36 37 38 39 40 41 42 43 44 45 46 47 48 49 50

000
ASUS41 KCLE 071412
RWRCLE
OHIO REGIONAL WEATHER ROUNDUP
NATIONAL WEATHER SERVICE WILMINGTON, OH
900 AM EST WED DEC 07 2016

NOTE: "FAIR" INDICATES FEW OR NO CLOUDS BELOW 12,000 FEET WITH NO
SIGNIFICANT WEATHER AND/OR OBSTRUCTIONS TO VISIBILITY.

OHZ001>008-015>018-024>027-034-035-043-044-071500-
   NORTHWEST OHIO

CITY           SKY/WX    TMP DP  RH WIND       PRES   REMARKS
DEFIANCE       FAIR      29  20  69 SW6       30.08S WCI  23
FINDLAY        FAIR      29  21  72 W9        30.09R WCI  20
TOLEDO EXPRESS FAIR      27  22  81 SW12      30.07R WCI  17
TOLEDO EXEC    FAIR      28  24  85 SW10      30.09R WCI  19
LIMA           FAIR      27  21  78 SW10      30.09R WCI  17
$$

OHZ009>014-019>023-028>033-038-089-071500-
   NORTHEAST OHIO

CITY           SKY/WX    TMP DP  RH WIND       PRES   REMARKS
CLE-HOPKINS    CLOUDY    31  23  72 SW14      30.09R WCI  21
CLE-LAKEFRONT  CLOUDY    31  24  75 SW15      30.07R WCI  20
CUY CO. ARPT   CLOUDY    32  27  80 SW12      30.06R WCI  23
LORAIN-ELYRIA  PTSUNNY   29  22  75 W14       30.08R WCI  18
ASHTABULA      CLOUDY    33  25  72 SW13G21   30.04R WCI  24
AKRON-CANTON   PTSUNNY   31  24  75 SW7       30.06R WCI  24
WOOSTER        FAIR      29  24  82 SW9       30.07R WCI  20
MANSFIELD      FAIR      28  23  81 SW14G20   30.07R WCI  17
YOUNGSTOWN     PTSUNNY   32  25  75 SW10      30.04R WCI  24
$$

OHZ042-051>053-060>062-070>072-077>081-071500-
  SOUTHWEST OHIO

CITY           SKY/WX    TMP DP  RH WIND       PRES   REMARKS
CINC-COVINGTON FAIR      31  24  75 W5        30.16R WCI  26
CINC-LUNKEN    FAIR      34  23  64 W7        30.20R WCI  28
HAMILTON       FAIR      31  25  78 W3        30.18R
DAYTON         FAIR      26  21  81 SW7       30.13R WCI  18
WRIGHT-PAT AFB FAIR      27  25  94 SW6       30.13R WCI  20
DAYTON GENERAL FAIR      30  21  69 SW6       30.14R WCI  24
WILMINGTON     FAIR      28  24  85 W6        30.14R WCI  22
$$

OHZ036-037-039>041-045>050-054>059-063>069-073>076-082>088-071500-
  CENTRAL AND SOUTHEAST OHIO

CITY           SKY/WX    TMP DP  RH WIND       PRES   REMARKS
COLUMBUS       PTSUNNY   29  27  92 SW6       30.12R WCI  23
OSU AIRPORT    FAIR      29  25  85 W5        30.11R WCI  24
BOLTON FIELD   SUNNY     28  27  93 W5        30.13R WCI  23
RICKENBACK AFB   N/A     29  26  92 W6        30.13R WCI  22
NEWARK         FAIR      30  25  81 SW6       30.11R WCI  24
MARION         FAIR      28  22  78 W7        30.10R WCI  21
LANCASTER      FAIR      30  27  88 SW5       30.13R WCI  25
ZANESVILLE     FAIR      31  26  82 SW6       30.11R WCI  25
NEW PHILLY     FAIR      31  28  89 VRB5      30.09S WCI  26
$$




USA.gov is the U.S. government's official web portal to all federal, state and local government web resources and services.